Flag for Germany Weather past 2 weeks in Memmingen, Bavaria, Germany

Now
34 °F

Snow. Dense fog.


Feels Like: 26 °F
Forecast: 27 / 47 °F
Wind: 9 mph from Southwest

Location: Kempten

Current Time: Apr 2, 2015 at 11:53:44 AM

Latest Report: Apr 2, 2015 at 10:00 AM


Visibility: 2 mi

Pressure: 30.02 "Hg

Humidity: 90%

Dew point: 31 °F

Location of MemmingenLocation

Historic Weather in Memmingen — Graph

°F

Memmingen temperature yesterday

Maximum temperature yesterday: 42 °F (at 12:00 AM)
Minimum temperature yesterday: 31 °F (at 8:00 AM)
Average temperature yesterday: 37 °F

Past Weeks' High & Low Weather Summary

 TemperatureHumidityPressure
High60 °F (Mar 18, 3:00 PM)98% (Mar 22, 2:00 AM)30.31 "Hg (Mar 22, 2:00 AM)
Low28 °F (Mar 20, 7:00 AM)30% (Mar 28, 3:00 PM)29.47 "Hg (Mar 25, 1:00 PM)
Average43 °F75%29.99 "Hg
* Reported Mar 18 9:00 AM — Apr 2 10:00 AM, Memmingen, Weather by CustomWeather, © 2015

Note: Actual official high and low records may vary slightly from our data, if they occured in-between our weather recording intervals... More about our weather records

Advertising

Memmingen weather history for previous 24 hours

 ConditionsComfort  
Time TempWeatherWind HumidityBarometerVisibility
10:00 AM
Thu, Apr 2
34 °FSnow. Dense fog.9 mph90%30.02 "Hg2 mi
9:00 AM34 °FLight snow. Overcast.7 mph88%30.05 "Hg1 mi
8:00 AM33 °FLight snow. Dense fog.6 mph90%30.08 "Hg2 mi
7:00 AM33 °FLight snow. Dense fog.5 mph91%30.10 "Hg1 mi
6:00 AM33 °FSnow. Dense fog.6 mph92%30.12 "Hg1 mi
4:00 AM33 °FLight snow. Low clouds.3 mph94%30.20 "Hg2 mi
3:00 AM35 °FLight snow. Dense fog.5 mph83%30.22 "Hg1 mi
2:00 AM36 °FFog.5 mph75%30.24 "Hg17 mi
1:00 AM36 °FLight snow. Haze.5 mph72%30.26 "Hg22 mi
12:00 AM36 °FLight snow. Fog.6 mph73%30.28 "Hg2 mi
11:00 PM
Wed, Apr 1
36 °FOvercast.5 mph75%30.29 "Hg22 mi
10:00 PM35 °FPassing clouds.6 mph78%30.29 "Hg22 mi
9:00 PM35 °FOvercast.6 mph72%30.27 "Hg28 mi
8:00 PM35 °FLight snow. Light fog.3 mph80%30.24 "Hg8 mi
7:00 PM36 °FOvercast.6 mph81%30.22 "Hg28 mi
6:00 PM36 °FPartly sunny.6 mph81%30.20 "Hg25 mi
4:00 PM38 °FLight snow. Partly sunny.6 mph71%30.18 "Hg19 mi
3:00 PM39 °FOvercast.5 mph68%30.17 "Hg19 mi
2:00 PM38 °FOvercast.7 mph67%30.18 "Hg22 mi
1:00 PM35 °FLight snow. Overcast.5 mph82%30.20 "Hg6 mi
12:00 PM36 °FLight snow. Overcast.5 mph72%30.20 "Hg10 mi
11:00 AM35 °FOvercast.6 mph74%30.20 "Hg15 mi
Weather by CustomWeather, © 2015

See weather overviewHow to use our weather pages